• In Hungary
  • List of Countries
  • For 7 days
  • Water Temperature
  • Satellite Maps
  • Weather Map
  • News
  • Weather Widgets
  • user-avatar
    Login

    Hourly Weather Kipungo

    Today, 20 July, Friday

    Time Temperature Precipitation Wind Pressure Humidity
    00:00 +14°C° 0 mm 1 mps 655 mmHg 51%
    01:00 +14°C° 0 mm 1 mps 655 mmHg 54%
    02:00 +13°C° 0 mm 1 mps 654 mmHg 56%
    03:00 +12°C° 0 mm 1 mps 654 mmHg 59%
    04:00 +12°C° 0 mm 1 mps 654 mmHg 61%
    05:00 +12°C° 0 mm 1 mps 654 mmHg 62%
    06:00 +11°C° 0 mm 1 mps 654 mmHg 63%
    07:00 +11°C° 0 mm 1 mps 654 mmHg 63%
    08:00 +15°C° 0 mm 2 mps 655 mmHg 53%
    09:00 +18°C° 0 mm 3 mps 656 mmHg 42%
    10:00 +22°C° 0 mm 4 mps 657 mmHg 31%
    11:00 +24°C° 0 mm 3 mps 657 mmHg 28%
    12:00 +26°C° 0 mm 3 mps 656 mmHg 24%
    13:00 +28°C° 0 mm 3 mps 656 mmHg 20%
    14:00 +28°C° 0 mm 2 mps 656 mmHg 19%
    15:00 +29°C° 0 mm 2 mps 655 mmHg 18%
    16:00 +29°C° 0 mm 1 mps 655 mmHg 17%
    17:00 +26°C° 0 mm 1 mps 654 mmHg 21%
    18:00 +23°C° 0 mm 1 mps 654 mmHg 25%
    19:00 +20°C° 0 mm 1 mps 654 mmHg 29%
    20:00 +19°C° 0 mm 1 mps 654 mmHg 31%
    21:00 +19°C° 0 mm 1 mps 654 mmHg 33%
    22:00 +18°C° 0 mm 1 mps 654 mmHg 35%
    23:00 +16°C° 0 mm 1 mps 654 mmHg 37%

    Tomorrow, 21 July, Saturday

    Time Temperature Precipitation Wind Pressure Humidity
    00:00 +15°C° 0 mm 1 mps 654 mmHg 40%
    01:00 +14°C° 0 mm 1 mps 654 mmHg 42%
    02:00 +14°C° 0 mm 1 mps 654 mmHg 45%
    03:00 +13°C° 0 mm 1 mps 653 mmHg 47%
    04:00 +12°C° 0 mm 1 mps 653 mmHg 50%
    05:00 +12°C° 0 mm 1 mps 653 mmHg 51%
    06:00 +12°C° 0 mm 1 mps 654 mmHg 52%
    07:00 +12°C° 0 mm 1 mps 654 mmHg 53%
    08:00 +16°C° 0 mm 2 mps 655 mmHg 44%
    09:00 +19°C° 0 mm 3 mps 656 mmHg 36%
    10:00 +24°C° 0 mm 3 mps 657 mmHg 28%
    11:00 +26°C° 0 mm 3 mps 657 mmHg 24%
    12:00 +28°C° 0 mm 3 mps 657 mmHg 20%
    13:00 +31°C° 0 mm 2 mps 657 mmHg 16%
    14:00 +31°C° 0 mm 2 mps 656 mmHg 15%
    15:00 +31°C° 0 mm 1 mps 656 mmHg 15%
    16:00 +31°C° 0 mm 1 mps 655 mmHg 14%
    17:00 +28°C° 0 mm 1 mps 655 mmHg 17%
    18:00 +25°C° 0 mm 1 mps 654 mmHg 21%
    19:00 +22°C° 0 mm 1 mps 654 mmHg 24%
    20:00 +21°C° 0 mm 1 mps 654 mmHg 25%
    21:00 +20°C° 0 mm 1 mps 655 mmHg 27%
    22:00 +19°C° 0 mm 1 mps 655 mmHg 28%
    23:00 +18°C° 0 mm 1 mps 655 mmHg 30%

    Day after tomorrow, 22 July, Sunday

    Time Temperature Precipitation Wind Pressure Humidity
    00:00 +16°C° 0 mm 1 mps 655 mmHg 32%
    01:00 +16°C° 0 mm 1 mps 655 mmHg 34%
    02:00 +15°C° 0 mm 1 mps 654 mmHg 37%
    03:00 +14°C° 0 mm 1 mps 654 mmHg 39%
    04:00 +14°C° 0 mm 1 mps 653 mmHg 41%
    05:00 +14°C° 0 mm 1 mps 654 mmHg 43%
    06:00 +13°C° 0 mm 1 mps 654 mmHg 44%
    07:00 +13°C° 0 mm 1 mps 654 mmHg 46%
    08:00 +17°C° 0 mm 2 mps 655 mmHg 39%
    09:00 +21°C° 0 mm 3 mps 656 mmHg 32%
    10:00 +25°C° 0 mm 4 mps 657 mmHg 25%
    11:00 +27°C° 0 mm 3 mps 657 mmHg 22%
    12:00 +29°C° 0 mm 3 mps 657 mmHg 19%
    13:00 +32°C° 0 mm 2 mps 657 mmHg 15%
    14:00 +32°C° 0 mm 2 mps 656 mmHg 15%
    15:00 +32°C° 0 mm 2 mps 656 mmHg 14%
    16:00 +32°C° 0 mm 1 mps 655 mmHg 13%
    17:00 +29°C° 0 mm 1 mps 655 mmHg 17%
    18:00 +26°C° 0 mm 1 mps 655 mmHg 20%
    19:00 +23°C° 0 mm 1 mps 655 mmHg 23%
    20:00 +22°C° 0 mm 1 mps 655 mmHg 24%
    21:00 +21°C° 0 mm 1 mps 656 mmHg 26%
    22:00 +20°C° 0 mm 1 mps 656 mmHg 27%
    23:00 +19°C° 0 mm 1 mps 656 mmHg 30%

    23 July, Monday

    Time Temperature Precipitation Wind Pressure Humidity
    00:00 +18°C° 0 mm 1 mps 655 mmHg 32%
    01:00 +16°C° 0 mm 1 mps 655 mmHg 35%
    02:00 +15°C° 0 mm 1 mps 655 mmHg 36%
    03:00 +15°C° 0 mm 1 mps 655 mmHg 38%
    04:00 +14°C° 0 mm 1 mps 654 mmHg 40%
    05:00 +14°C° 0 mm 1 mps 655 mmHg 41%
    06:00 +14°C° 0 mm 1 mps 655 mmHg 42%
    07:00 +14°C° 0 mm 1 mps 656 mmHg 43%
    08:00 +18°C° 0 mm 2 mps 656 mmHg 37%
    09:00 +21°C° 0 mm 3 mps 657 mmHg 31%
    10:00 +26°C° 0 mm 4 mps 658 mmHg 25%
    11:00 +28°C° 0 mm 3 mps 658 mmHg 22%
    12:00 +29°C° 0 mm 3 mps 657 mmHg 19%
    13:00 +31°C° 0 mm 3 mps 657 mmHg 16%
    14:00 +32°C° 0 mm 2 mps 657 mmHg 15%
    15:00 +32°C° 0 mm 2 mps 656 mmHg 14%
    16:00 +32°C° 0 mm 2 mps 656 mmHg 13%
    17:00 +29°C° 0 mm 2 mps 656 mmHg 16%
    18:00 +26°C° 0 mm 1 mps 656 mmHg 19%
    19:00 +23°C° 0 mm 1 mps 655 mmHg 22%
    20:00 +22°C° 0 mm 1 mps 656 mmHg 23%
    21:00 +21°C° 0 mm 1 mps 656 mmHg 24%
    22:00 +19°C° 0 mm 2 mps 656 mmHg 26%
    23:00 +19°C° 0 mm 1 mps 656 mmHg 28%

    24 July, Tuesday

    Time Temperature Precipitation Wind Pressure Humidity
    00:00 +18°C° 0 mm 1 mps 655 mmHg 30%
    01:00 +16°C° 0 mm 1 mps 655 mmHg 32%
    02:00 +15°C° 0 mm 1 mps 655 mmHg 35%
    03:00 +14°C° 0 mm 1 mps 654 mmHg 38%
    04:00 +14°C° 0 mm 1 mps 654 mmHg 41%
    05:00 +14°C° 0 mm 1 mps 655 mmHg 42%
    06:00 +14°C° 0 mm 1 mps 655 mmHg 43%
    07:00 +14°C° 0 mm 1 mps 655 mmHg 44%
    08:00 +17°C° 0 mm 2 mps 656 mmHg 37%
    09:00 +21°C° 0 mm 3 mps 657 mmHg 30%
    10:00 +26°C° 0 mm 3 mps 658 mmHg 23%
    11:00 +28°C° 0 mm 3 mps 658 mmHg 20%
    12:00 +29°C° 0 mm 3 mps 657 mmHg 17%
    13:00 +31°C° 0 mm 2 mps 657 mmHg 14%
    14:00 +31°C° 0 mm 2 mps 656 mmHg 13%
    15:00 +32°C° 0 mm 2 mps 656 mmHg 12%
    16:00 +32°C° 0 mm 2 mps 656 mmHg 12%
    17:00 +29°C° 0 mm 2 mps 655 mmHg 15%
    18:00 +26°C° 0 mm 1 mps 655 mmHg 17%
    19:00 +22°C° 0 mm 1 mps 655 mmHg 20%
    20:00 +21°C° 0 mm 1 mps 655 mmHg 22%
    21:00 +20°C° 0 mm 1 mps 655 mmHg 23%
    22:00 +19°C° 0 mm 1 mps 655 mmHg 24%
    23:00 +19°C° 0 mm 1 mps 655 mmHg 27%

    25 July, Wednesday

    Time Temperature Precipitation Wind Pressure Humidity
    00:00 +18°C° 0 mm 1 mps 655 mmHg 29%
    01:00 +16°C° 0 mm 1 mps 654 mmHg 31%
    02:00 +15°C° 0 mm 1 mps 654 mmHg 33%
    03:00 +14°C° 0 mm 1 mps 654 mmHg 36%
    04:00 +13°C° 0 mm 0 mps 653 mmHg 39%
    05:00 +14°C° 0 mm 1 mps 654 mmHg 39%
    06:00 +14°C° 0 mm 1 mps 654 mmHg 40%
    07:00 +14°C° 0 mm 1 mps 655 mmHg 41%
    08:00 +18°C° 0 mm 2 mps 656 mmHg 34%
    09:00 +23°C° 0 mm 2 mps 656 mmHg 28%
    10:00 +27°C° 0 mm 3 mps 657 mmHg 21%
    11:00 +29°C° 0 mm 3 mps 657 mmHg 18%
    12:00 +31°C° 0 mm 2 mps 657 mmHg 15%
    13:00 +34°C° 0 mm 2 mps 656 mmHg 12%
    14:00 +33°C° 0 mm 1 mps 656 mmHg 12%
    15:00 +33°C° 0 mm 1 mps 656 mmHg 11%
    16:00 +33°C° 0 mm 1 mps 655 mmHg 11%
    17:00 +29°C° 0 mm 1 mps 655 mmHg 14%
    18:00 +26°C° 0 mm 1 mps 654 mmHg 17%
    19:00 +23°C° 0 mm 1 mps 654 mmHg 19%
    20:00 +22°C° 0 mm 1 mps 654 mmHg 21%
    21:00 +21°C° 0 mm 1 mps 655 mmHg 23%
    22:00 +20°C° 0 mm 1 mps 655 mmHg 25%
    23:00 +19°C° 0 mm 1 mps 655 mmHg 28%
    Show more